Hourly Data Report for May 04, 2021

MANIWAKI AIRPORT
QUEBEC
Current Station Operator: ECCC - MSC

46°16'29.000" N
75°59'31.000" W
199.70 m
7034482
71721
WMJ

Download Data

Hourly Data (May 2021)
Hourly Data Report for May 4, 2021
TIME
LST
Temp Definition
°C
Dew Point Definition
°C
Rel Hum Definition
%
Precip. Amount Definition
mm

Wind Dir Definition
10's deg

Wind Spd Definition
km/h
Visibility Definition
km
Stn Press Definition
kPa
Hmdx Definition


Wind Chill Definition


Weather Definition


00:00 5.1 3.9 91 1.0 2 6   98.65     LegendNANA
01:00 5.2 4.4 95 0.0 36 4   98.58     LegendNANA
02:00 5.5 3.7 88 0.0 36 8   98.55     LegendNANA
03:00 5.5 4.0 90 0.2 35 8   98.54     LegendNANA
04:00 5.3 3.8 90 0.1 1 7   98.52     LegendNANA
05:00 5.4 3.4 87 0.0 2 6   98.52     LegendNANA
06:00 5.7 3.3 84 0.1 3 8   98.45     LegendNANA
07:00 6.7 3.3 79 0.0 1 7   98.50     LegendNANA
08:00 7.1 3.4 77 0.0 2 5   98.50     LegendNANA
09:00 7.7 3.0 72 0.0 3 7   98.47     LegendNANA
10:00 9.0 2.6 64 0.0 1 8   98.45     LegendNANA
11:00 9.8 0.7 53 0.0 3 9   98.44     LegendNANA
12:00 10.1 1.3 54 0.0 2 11   98.40     LegendNANA
13:00 11.3 1.0 49 0.0 2 14   98.36     LegendNANA
14:00 10.9 1.1 51 0.0 2 10   98.33     LegendNANA
15:00 10.2 3.5 63 0.1 1 8   98.28     LegendNANA
16:00 10.9 2.5 56 0.0 2 13   98.23     LegendNANA
17:00 11.4 3.4 58 0.0 4 8   98.19     LegendNANA
18:00 8.8 4.5 74 0.0 36 10   98.20     LegendNANA
19:00 7.5 5.7 88 0.0 35 3   98.18     LegendNANA
20:00 7.1 6.4 96 0.3 35 2   98.17     LegendNANA
21:00 7.0 6.6 97 0.3 32 4   98.22     LegendNANA
22:00 6.9 6.6 98 0.1 34 6   98.17     LegendNANA
23:00 6.8 6.6 98 0.1 1 5   98.09     LegendNANA

Notes on Data Quality.

Legend

  • E = Estimated
  • M = Missing
  • NA = Not Available*
  • [empty] = Indicates an unobserved value
Date modified: